Regional Weather Roundup
Issued by NWS Upton, NY

Current Version | Previous Version | Text Only | Print | Product List | Glossary On
Versions: 1 2 3 4 5 6 7 8 9 10 11 12 13 14 15 16 17 18 19 20 21 22 23 24 25 26 27 28 29 30 31 32 33 34 35 36 37 38 39 40 41 42 43 44 45 46 47 48 49 50
000
ASUS41 KOKX 042004
RWROKX

REGIONAL WEATHER ROUNDUP
NATIONAL WEATHER SERVICE NEW YORK NY
400 PM EDT TUE AUG 04 2015

NOTE: "FAIR" INDICATES FEW OR NO CLOUDS BELOW 12,000 FEET WITH NO
SIGNIFICANT WEATHER AND/OR OBSTRUCTIONS TO VISIBILITY.

NYZ071-072-176-178-NJZ106-104-042100-
NEW YORK CITY METRO AREA


CITY           SKY/WX    TMP DP  RH WIND       PRES   REMARKS
CENTRAL PARK   SUNNY     88  55  32 W14G25    29.86F
LAGUARDIA APRT MOSUNNY   91  52  26 W12G24    29.83S
KENNEDY INTL   MOSUNNY   92  60  34 SW18      29.85S HX  91
NEWARK/LIBERTY MOSUNNY   92  55  28 W18G28    29.84S HX  90
BRNX BOT. GARD   N/A     88  54  31 NW5       29.83F
TETERBORO      MOSUNNY   90  53  28 SW15G21   29.82F
$$

NYZ177-179-078>081-042100-
LONG ISLAND NEW YORK

CITY           SKY/WX    TMP DP  RH WIND       PRES   REMARKS
FARMINGDALE    SUNNY     91  60  35 SW14G24   29.83F HX  90
ISLIP          MOSUNNY   88  66  48 S13G22    29.82F HX  90
SHIRLEY        SUNNY     85  70  60 S13       29.85S
WESTHAMPTON    SUNNY     86  67  52 SW12G21   29.86S
MONTAUK POINT    N/A     83  71  67 SW9G20    29.85F
$$

NYZ052-065-067-042100-
HUDSON VALLEY

CITY           SKY/WX    TMP DP  RH WIND       PRES   REMARKS
WHITE PLAINS   MOSUNNY   87  52  29 SW8G16    29.84S
NEWBURGH       MOSUNNY   90  59  35 W17G29    29.84S
MONTGOMERY     PTSUNNY   85  61  44 W12       29.83R
POUGHKEEPSIE   MOSUNNY   88  58  36 W13       29.80S
ALBANY         MOSUNNY   84  58  40 NW13      29.83R
$$

NJZ001-105-106-008-010-013-015-019>022-104-042100-
NEW JERSEY

CITY           SKY/WX    TMP DP  RH WIND       PRES   REMARKS
NEWARK/LIBERTY MOSUNNY   92  55  28 W18G28    29.84S HX  90
TETERBORO      MOSUNNY   90  53  28 SW15G21   29.82F
CALDWELL       MOSUNNY   87  57  35 W10G20    29.85R
MORRISTOWN     MOSUNNY   91  57  31 W15G22    29.85F HX  90
SOMERVILLE     MOSUNNY   88  57  34 W8G16     29.84S
SUSSEX         SUNNY     85  57  38 W10G18    29.86R
ANDOVER          N/A     83  60  45 SW10G20   29.87S
TRENTON        SUNNY     90  53  28 W14       29.86F
MILLVILLE      MOSUNNY   92  64  39 W15       29.89F HX  93
ATLANTIC CITY  MOSUNNY   92  62  36 SW14      29.88S HX  92
WRIGHTSTOWN    MOSUNNY   89  61  38 W15G22    29.84S
TOMS RIVER       N/A     91  61  35 W16G22    29.86F HX  91
BELMAR         MOSUNNY   90  63  40 W13G20    29.86S HX  90
$$

PAZ047>061-062-071-042100-
EASTERN PENNSYLVANIA

CITY           SKY/WX    TMP DP  RH WIND       PRES   REMARKS
PHILADELPHIA   MOSUNNY   91  58  32 W12       29.88S HX  90
ALLENTOWN      SUNNY     85  57  38 W15G21    29.88S
SCRANTON       MOSUNNY   84  56  38 W16       29.88F
$$

CTZ002-004>006-009-010-012-RIZ004-006-007-MAZ004-011-015-042100-
SOUTHERN NEW ENGLAND
 IN CT

CITY           SKY/WX    TMP DP  RH WIND       PRES   REMARKS
BRADLEY INTL   LGT RAIN  79  63  57 N7        29.80R
HARTFORD       MOSUNNY   89  58  34 SW14G21   29.78F
DANBURY        SUNNY     86  58  38 SW10      29.84S
WTRBRY/OXFORD  MOSUNNY   86  55  35 W10G17    29.86F
BRIDGEPORT     SUNNY     88  65  46 SW15      29.81F HX  90
MERIDEN        MOSUNNY   89  63  41 SW9       29.80F HX  90
NEW HAVEN      MOSUNNY   85  66  53 SW7       29.82F
CHESTER        FAIR      84  64  51 SW12G20   29.84F
GROTON         MOSUNNY   82  68  62 S7        29.82F
WILLIMANTIC    SUNNY     88  65  46 S17G25    29.80F HX  90

 IN RI

CITY           SKY/WX    TMP DP  RH WIND       PRES   REMARKS
PROVIDENCE     SUNNY     86  67  52 SW16G28   29.81F
BLOCK ISLAND     N/A     79  73  83 SW16G23   29.85F
WESTERLY       MOSUNNY   83  70  64 SW14G21   29.84F

 IN MA

CITY           SKY/WX    TMP DP  RH WIND       PRES   REMARKS
BOSTON         PTSUNNY   81  62  52 NW13      29.80R
WORCESTER      PTSUNNY   68  62  81 NW14      29.84F THUNDER
WESTFIELD      MOSUNNY   80  64  58 NW9       29.82R
PROVINCETOWN   SUNNY     81  68  65 SW15      29.80F
NANTUCKET      MOSUNNY   79  73  82 SW17      29.86F
$$

ANZ330-335-338-340-345-350-353-355-042100-
COASTAL MARINE OBSERVATIONS


STATION/POSITION TIME  SKY/WX   TEMP    WIND        PRES    VSBY  WAVE
                                AIR SEA DIR/SP/G                  HT/PER
                 (UTC)          (F)     (DEG/KT/KT) (MB)    (MI)  (FT/S)
NY HARB ENTRANCE 1850            81 78  210/  4/  6 1010.9          4/ 8
4S FIRE IS       NOT AVBL
20S FIRE ISLAND  1850            76 75  210/  8/ 10 1011.3          6/ 8
GREAT SOUTH BAY  1900            80 81  220/ 10/ 14   N/A
23SW MTP         1950            77 74  220/ 14/ 16 1010.8          6/ 8
HUDSON CANYON    NOT AVBL
KINGS POINT      1900            85 71  280/ 13/ 17 1009.7
EXECUTION ROCKS  1900            82     230/  8/ 12   N/A
CENTRAL LI SOUND NOT AVBL
EASTERN LI SOUND 1900            76 70   CALM  /  2   N/A
ROBBINS REEF     1900            86     280/ 17/ 24 1009.7
$$


>>>>>>>>>>>>>>>>>>>>>>>>>>>> KEY <<<<<<<<<<<<<<<<<<<<<<<<<<<
>                                                          <
>     SKY/WX - SKY CONDITION/PRESENT WEATHER               <
>     TMP    - TEMPERATURE IN FAHRENHEIT                   <
>     DP     - DEWPOINT IN FAHRENHEIT                      <
>     RH     - RELATIVE HUMIDITY IN PERCENT                <
>     WIND   - DIRECTION AND SPEED IN MPH                  <
>     PRES   - MEAN SEA LEVEL PRESSURE IN INCHES OF HG     <
>     WCI    - WIND CHILL INDEX                            <
>     VSB    - VISIBILITY IN MILES                         <
>     HX     - HEAT INDEX                                  <
>     TC     - TEMPERATURE IN CELSIUS                      <
>     VRB    - VARIABLE WIND DIRECTION                     <
>                                                          <
>>>>>>>>>>>>>>>>>>>>>>>>>>>> KEY <<<<<<<<<<<<<<<<<<<<<<<<<<<




USA.gov is the U.S. government's official web portal to all federal, state and local government web resources and services.